Weather observations for the past three days for
Shirley, Brookhaven Airport
| Date | Time (edt) | Wind (kph) | Vis. (km) | Weather | Sky Cond. | Temperature (ºC) | Relative Humidity | Wind Chill (°C) | Heat Index (°C) | Pressure | Precipitation (cm) | ||||||
|---|---|---|---|---|---|---|---|---|---|---|---|---|---|---|---|---|---|
| Air | Dwpt | 6 hour | altimeter (cm) | sea level (mb) | 1 hr | 3 hr | 6 hr | ||||||||||
| Max. | Min. | ||||||||||||||||
| 06 | 04:56 | SW 19 G 35 | 16.09 | Mostly Cloudy | BKN010 | 13.3 | 11.7 | 90% | 75.9 | 1011.8 | |||||||
| 06 | 03:56 | SW 22 G 43 | 16.09 | A Few Clouds | FEW012 | 13.9 | 11.7 | 87% | 75.92 | 1012.1 | |||||||
| 06 | 02:56 | SW 22 G 46 | 16.09 | Fair | CLR | 14.4 | 11.1 | 81% | 75.92 | 1012.2 | |||||||
| 06 | 01:56 | SW 24 G 46 | 16.09 | Fair | CLR | 13.9 | 11.7 | 15 | 13.9 | 87% | 75.92 | 1012.2 | |||||
| 06 | 00:56 | SW 22 G 41 | 16.09 | Fair | CLR | 14.4 | 11.1 | 81% | 75.95 | 1012.6 | |||||||
| 05 | 23:56 | S 24 G 50 | 16.09 | Fair | CLR | 14.4 | 11.1 | 81% | 75.97 | 1012.7 | |||||||
| 05 | 22:56 | SW 26 G 43 | 16.09 | Fair | CLR | 13.9 | 10.6 | 81% | 75.95 | 1012.6 | |||||||
| 05 | 21:56 | SW 26 G 44 | 16.09 | Fair | CLR | 14.4 | 10.6 | 78% | 75.95 | 1012.6 | |||||||
| 05 | 20:56 | SW 22 G 54 | 16.09 | Fair | CLR | 15 | 10.6 | 75% | 75.9 | 1012.0 | |||||||
| 05 | 19:56 | SW 24 G 46 | 16.09 | Fair | CLR | 15 | 10 | 17.2 | 15 | 72% | 75.84 | 1011.2 | |||||
| 05 | 18:56 | SW 33 G 59 | 16.09 | Fair and Breezy | CLR | 15.6 | 10.6 | 72% | 75.79 | 1010.4 | |||||||
| 05 | 17:56 | SW 31 G 50 | 16.09 | Fair | CLR | 15.6 | 10.6 | 72% | 75.77 | 1010.1 | |||||||
| 05 | 16:56 | SW 30 G 52 | 16.09 | Fair | CLR | 16.7 | 10.6 | 67% | 75.74 | 1009.8 | |||||||
| 05 | 15:56 | SW 35 G 52 | 16.09 | Fair and Breezy | CLR | 16.7 | 10.6 | 67% | 75.77 | 1010.2 | |||||||
| 05 | 14:56 | S 30 G 44 | 16.09 | Fair | CLR | 16.1 | 10.6 | 70% | 75.84 | 1011.3 | |||||||
| 05 | 13:56 | SW 28 G 44 | 16.09 | Fair | CLR | 16.7 | 10.6 | 17.2 | 13.9 | 67% | 75.87 | 1011.6 | |||||
| 05 | 12:56 | SW 26 | 16.09 | Fair | CLR | 16.7 | 11.1 | 70% | 75.9 | 1011.8 | |||||||
| 05 | 11:56 | S 24 G 33 | 16.09 | Fair | CLR | 16.7 | 11.1 | 70% | 75.92 | 1012.1 | |||||||
| 05 | 10:56 | S 28 G 37 | 16.09 | Fair | CLR | 16.1 | 11.1 | 72% | 75.95 | 1012.6 | |||||||
| 05 | 09:56 | S 22 | 16.09 | Fair | CLR | 15.6 | 11.1 | 75% | 75.95 | 1012.4 | |||||||
| 05 | 08:56 | S 17 | 16.09 | A Few Clouds | FEW110 | 14.4 | 11.1 | 81% | 75.92 | 1012.2 | |||||||
| 05 | 07:56 | SW 15 | 16.09 | Fair | CLR | 14.4 | 11.1 | 14.4 | 11.7 | 81% | 75.92 | 1012.2 | |||||
| 05 | 06:56 | SW 15 | 12.87 | Partly Cloudy | SCT110 | 12.8 | 10.6 | 87% | 75.9 | 1011.9 | |||||||
| 05 | 05:56 | SW 17 | 12.87 | Fair | CLR | 11.7 | 10 | 89% | 75.84 | 1011.3 | |||||||
| 05 | 04:56 | S 15 | 16.09 | Partly Cloudy | SCT120 | 12.2 | 10.6 | 90% | 75.84 | 1011.2 | |||||||
| 05 | 03:56 | SW 13 | 16.09 | Partly Cloudy | SCT090 | 12.2 | 10 | 87% | 75.87 | 1011.5 | |||||||
| 05 | 02:56 | SW 15 | 16.09 | Fair | CLR | 12.2 | 9.4 | 83% | 75.87 | 1011.5 | |||||||
| 05 | 01:56 | SW 11 | 16.09 | Fair | CLR | 11.7 | 9.4 | 12.8 | 11.1 | 86% | 75.9 | 1011.8 | |||||
| 05 | 00:56 | SW 11 | 16.09 | Fair | CLR | 11.1 | 9.4 | 89% | 75.92 | 1012.2 | |||||||
| 04 | 23:56 | S 15 | 16.09 | Fair | CLR | 12.2 | 9.4 | 83% | 75.95 | 1012.5 | |||||||
| 04 | 22:56 | SW 15 | 16.09 | Fair | CLR | 12.8 | 9.4 | 80% | 75.95 | 1012.4 | |||||||
| 04 | 21:56 | SW 15 | 16.09 | Fair | CLR | 12.2 | 8.9 | 80% | 75.95 | 1012.4 | |||||||
| 04 | 20:56 | SW 13 | 16.09 | Fair | CLR | 12.2 | 8.9 | 80% | 75.9 | 1011.9 | |||||||
| 04 | 19:56 | S 15 G 33 | 16.09 | Fair | CLR | 12.2 | 8.9 | 16.7 | 11.7 | 80% | 75.84 | 1011.3 | |||||
| 04 | 18:56 | SW 15 G 35 | 16.09 | Fair | CLR | 12.2 | 8.9 | 80% | 75.84 | 1011.1 | |||||||
| 04 | 17:56 | SW 22 G 43 | 16.09 | Fair | CLR | 13.9 | 8.3 | 69% | 75.84 | 1011.3 | |||||||
| 04 | 16:56 | S 30 G 52 | 16.09 | Fair | CLR | 14.4 | 7.8 | 65% | 75.84 | 1011.2 | |||||||
| 04 | 15:56 | S 26 G 43 | 16.09 | Fair | CLR | 16.1 | 7.2 | 56% | 75.87 | 1011.5 | |||||||
| 04 | 14:56 | SW 24 G 48 | 16.09 | Fair | CLR | 16.7 | 6.1 | 50% | 75.9 | 1011.7 | |||||||
| 04 | 13:56 | S 26 | 16.09 | Fair | CLR | 16.1 | 7.2 | 16.7 | 13.3 | 56% | 75.92 | 1012.2 | |||||
| 04 | 12:56 | S 22 | 16.09 | Fair | CLR | 16.1 | 7.2 | 56% | 75.97 | 1012.7 | |||||||
| 04 | 11:56 | SW 24 G 37 | 16.09 | Fair | CLR | 16.7 | 5 | 46% | 76.02 | 1013.4 | |||||||
| 04 | 10:56 | SW 19 | 16.09 | Fair | CLR | 15.6 | 5 | 50% | 76.05 | 1013.8 | |||||||
| 04 | 09:56 | SW 19 G 35 | 16.09 | Fair | CLR | 15 | 5 | 51% | 76.05 | 1013.9 | |||||||
| 04 | 08:56 | W 24 G 35 | 16.09 | Fair | CLR | 14.4 | 3.3 | 48% | 76.1 | 1014.3 | |||||||
| 04 | 07:56 | SW 20 G 33 | 16.09 | Fair | CLR | 13.3 | 2.8 | 13.3 | 9.4 | 49% | 76.07 | 1014.3 | |||||
| 04 | 06:56 | SW 15 | 16.09 | Fair | CLR | 11.1 | 3.3 | 59% | 76.1 | 1014.4 | |||||||
| 04 | 05:56 | SW 13 | 16.09 | Fair | CLR | 10 | 2.2 | 59% | 8 | 76.05 | 1013.9 | ||||||
| 04 | 04:56 | SW 13 | 16.09 | Fair | CLR | 10.6 | 0.6 | 50% | 76.02 | 1013.6 | |||||||
| 04 | 03:56 | SW 11 | 16.09 | Fair | CLR | 10.6 | 0.6 | 50% | 76 | 1013.3 | |||||||
| 04 | 02:56 | SW 11 | 16.09 | Fair | CLR | 10 | 1.1 | 54% | 9 | 75.97 | 1012.9 | ||||||
| 04 | 01:56 | W 9 | 16.09 | Fair | CLR | 9.4 | 2.8 | 12.2 | 6.1 | 64% | 8 | 75.97 | 1012.8 | ||||
| 04 | 00:56 | SW 7 | 16.09 | Fair | CLR | 9.4 | 2.8 | 64% | 9 | 75.95 | 1012.6 | ||||||
| 03 | 23:56 | SW 6 | 16.09 | Fair | CLR | 6.7 | -1.1 | 58% | 75.95 | 1012.5 | |||||||
| 03 | 22:56 | Calm | 16.09 | Fair | CLR | 6.7 | -3.3 | 49% | 75.95 | 1012.4 | |||||||
| 03 | 21:56 | Calm | 16.09 | Fair | CLR | 7.8 | -3.9 | 44% | 75.92 | 1012.3 | |||||||
| 03 | 20:56 | Calm | 16.09 | Overcast | OVC100 | 9.4 | -3.9 | 39% | 75.9 | 1011.6 | |||||||
| 03 | 19:56 | W 7 | 16.09 | Fair | CLR | 12.2 | -4.4 | 14.4 | 11.7 | 31% | 75.82 | 1010.8 | |||||
| 03 | 18:56 | NW 17 | 16.09 | Fair | CLR | 13.9 | -5.6 | 26% | 75.79 | 1010.4 | |||||||
| 03 | 17:56 | NW 22 G 43 | 16.09 | Fair | CLR | 13.9 | -5.6 | 26% | 75.77 | 1010.0 | |||||||
| 03 | 16:56 | NW 30 G 59 | 16.09 | Fair | CLR | 13.9 | -5 | 27% | 75.74 | 1009.7 | |||||||
| 03 | 15:56 | NW 37 G 59 | 16.09 | Partly Cloudy and Breezy | SCT070 | 13.9 | -3.9 | 29% | 75.74 | 1009.9 | |||||||
| 03 | 14:56 | NW 26 G 57 | 16.09 | Mostly Cloudy | BKN075 | 13.3 | -5 | 28% | 75.74 | 1009.7 | |||||||
| 03 | 13:56 | NW 24 G 46 | 16.09 | Mostly Cloudy | BKN070 | 11.7 | -5 | 12.8 | 7.2 | 31% | 75.77 | 1009.9 | |||||
| 03 | 12:56 | NW 26 G 46 | 16.09 | Overcast | SCT060 OVC080 | 12.2 | -3.3 | 34% | 75.77 | 1010.1 | |||||||
| 03 | 11:56 | NW 28 G 59 | 16.09 | Mostly Cloudy | FEW060 BKN085 | 11.7 | -3.3 | 35% | 75.77 | 1010.2 | |||||||
| 03 | 09:56 | NW 31 G 46 | 16.09 | Fair | CLR | 10 | -1.1 | 46% | 7 | 75.77 | 1010.0 | ||||||
| 03 | 08:56 | NW 33 G 44 | 16.09 | Partly Cloudy and Breezy | SCT095 | 8.3 | -1.1 | 52% | 4 | 75.77 | 1010.0 | ||||||
| 03 | 07:56 | NW 30 G 48 | 16.09 | Overcast | OVC095 | 7.2 | -1.1 | 8.9 | 5.6 | 56% | 3 | 75.77 | 1010.0 | ||||
| 03 | 06:56 | NW 26 G 41 | 16.09 | Mostly Cloudy | BKN095 | 6.7 | -1.1 | 58% | 3 | 75.74 | 1009.6 | ||||||
| 03 | 05:56 | N 17 | 16.09 | Fair | CLR | 6.1 | -2.2 | 56% | 3 | 75.72 | 1009.3 | ||||||
| Date | Time (edt) | Wind (kph) | Vis. (km) | Weather | Sky Cond. | Air | Dwpt | Max. | Min. | Relative Humidity | Wind Chill (°C) | Heat Index (°C) | altimeter (cm) | sea level (mb) | 1 hr | 3 hr | 6 hr |
| 6 hour | |||||||||||||||||
| Temperature (ºC) | Pressure | Precipitation (cm) | |||||||||||||||